Location: LDNL
(36.4545°S, 141.6685°E)
Time: 06:44:58
(UTC+11:00)

Altair - All Passes

Search period start: 26 January 2022 00:00
Search period end: 05 February 2022 00:00
Orbit: 1501 x 1683 km, 47.2° (Epoch: 24 January)

Date Brightness Start Highest point End Pass type
(mag) Time Alt. Az. Time Alt. Az. Time Alt. Az.
26 Jan - 11:19:22 10° NE 11:21:07 11° ENE 11:22:51 10° ENE daylight
26 Jan - 13:15:14 10° NNW 13:24:20 52° NE 13:33:13 10° ESE daylight
26 Jan - 15:19:38 10° WNW 15:28:57 63° SSW 15:38:08 10° SE daylight
26 Jan - 17:26:21 10° WSW 17:35:04 43° S 17:43:44 10° ESE daylight
26 Jan - 19:32:05 10° SW 19:41:13 61° SSE 19:50:25 10° ENE daylight
26 Jan - 21:37:00 10° WSW 21:45:54 55° NW 21:54:58 10° NNE visible
26 Jan - 23:46:08 10° WNW 23:49:09 12° WNW 23:52:11 10° NW visible
27 Jan - 12:50:14 10° NNW 12:59:14 47° NE 13:07:59 10° ESE daylight
27 Jan - 14:54:20 10° WNW 15:03:44 67° SSW 15:12:57 10° SE daylight
27 Jan - 17:01:01 10° WSW 17:09:46 43° S 17:18:26 10° ESE daylight
27 Jan - 19:06:53 10° WSW 19:15:59 58° SSE 19:25:06 10° E daylight
27 Jan - 21:11:47 10° WSW 21:20:47 60° NW 21:29:56 10° NE visible
27 Jan - 23:19:54 10° W 23:24:06 14° WNW 23:28:21 10° NNW visible
28 Jan - 12:25:16 10° NNW 12:34:07 43° NE 12:42:44 10° ESE daylight
28 Jan - 14:29:03 10° WNW 14:38:31 70° SSW 14:47:47 10° SE daylight
28 Jan - 16:35:41 10° WSW 16:44:28 43° S 16:53:09 10° ESE daylight
28 Jan - 18:41:40 10° WSW 18:50:44 55° SSE 18:59:48 10° E daylight
28 Jan - 20:46:34 10° WSW 20:55:40 65° NW 21:04:52 10° NE daylight
28 Jan - 22:54:01 10° W 22:59:04 16° NW 23:04:11 10° NNW visible
29 Jan - 12:00:19 10° NNW 12:09:01 40° NE 12:17:28 10° ESE daylight
29 Jan - 14:03:47 10° WNW 14:13:18 75° SSW 14:22:37 10° SE daylight
29 Jan - 16:10:20 10° WSW 16:19:10 44° S 16:27:53 10° ESE daylight
29 Jan - 18:16:27 10° WSW 18:25:28 53° SSE 18:34:29 10° E daylight
29 Jan - 20:21:22 10° WSW 20:30:31 70° NW 20:39:47 10° NE daylight
29 Jan - 22:28:18 10° W 22:34:01 18° NW 22:39:48 10° NNW visible
30 Jan - 11:35:25 10° NNW 11:43:55 36° NE 11:52:11 10° ESE daylight
30 Jan - 13:38:31 10° WNW 13:48:06 79° SSW 13:57:26 10° SE daylight
30 Jan - 15:44:59 10° W 15:53:52 44° S 16:02:37 10° ESE daylight
30 Jan - 17:51:15 10° WSW 18:00:13 51° SSE 18:09:09 10° E daylight
30 Jan - 19:56:11 10° WSW 20:05:24 75° NW 20:14:40 10° NE daylight
30 Jan - 22:02:42 10° W 22:08:58 21° NW 22:15:19 10° N visible
31 Jan - 11:10:33 10° N 11:18:49 33° NE 11:26:51 10° ESE daylight
31 Jan - 13:13:17 10° WNW 13:22:55 84° SSW 13:32:16 10° ESE daylight
31 Jan - 15:19:38 10° W 15:28:35 45° S 15:37:22 10° ESE daylight
31 Jan - 17:26:00 10° WSW 17:34:57 49° SSE 17:43:50 10° E daylight
31 Jan - 19:31:00 10° WSW 19:40:14 81° NW 19:49:32 10° NE daylight
31 Jan - 21:37:11 10° W 21:43:54 23° NW 21:50:43 10° N visible
01 Feb - 10:45:44 10° N 10:53:44 30° NE 11:01:31 10° ESE daylight
01 Feb - 12:48:03 10° NW 12:57:44 88° SSW 13:07:06 10° ESE daylight
01 Feb - 14:54:16 10° W 15:03:17 47° SSW 15:12:07 10° ESE daylight
01 Feb - 17:00:45 10° WSW 17:09:41 48° SSE 17:18:30 10° E daylight
01 Feb - 19:05:49 10° WSW 19:15:05 86° NW 19:24:22 10° NE daylight
01 Feb - 21:11:43 10° WSW 21:18:51 26° NW 21:26:03 10° N visible
02 Feb - 10:20:58 10° N 10:28:39 27° NE 10:36:07 10° ESE daylight
02 Feb - 12:22:50 10° NW 12:32:32 86° NE 12:41:56 10° ESE daylight
02 Feb - 14:28:54 10° W 14:38:00 48° SSW 14:46:54 10° ESE daylight
02 Feb - 16:35:29 10° WSW 16:44:24 46° SSE 16:53:12 10° E daylight
02 Feb - 18:40:38 10° WSW 18:49:55 89° SE 18:59:12 10° NE daylight
02 Feb - 20:46:19 10° WSW 20:53:47 29° NW 21:01:20 10° N daylight
03 Feb - 09:56:15 10° N 10:03:33 24° NE 10:10:41 10° ESE daylight
03 Feb - 11:57:39 10° NW 12:07:22 81° NE 12:16:46 10° ESE daylight
03 Feb - 14:03:33 10° W 14:12:43 50° SSW 14:21:40 10° ESE daylight
03 Feb - 16:10:13 10° WSW 16:19:07 45° S 16:27:52 10° E daylight
03 Feb - 18:15:26 10° WSW 18:24:45 84° SSE 18:34:01 10° ENE daylight
03 Feb - 20:20:57 10° WSW 20:28:43 32° NW 20:36:34 10° N daylight
04 Feb - 09:31:37 10° N 09:38:29 22° NE 09:45:11 10° E daylight
04 Feb - 11:32:29 10° NW 11:42:12 76° NE 11:51:35 10° ESE daylight
04 Feb - 13:38:10 10° W 13:47:26 51° SSW 13:56:27 10° ESE daylight
04 Feb - 15:44:55 10° WSW 15:53:49 45° S 16:02:33 10° E daylight
04 Feb - 17:50:15 10° SW 17:59:34 79° SSE 18:08:49 10° ENE daylight
04 Feb - 19:55:37 10° WSW 20:03:39 35° NW 20:11:44 10° NNE daylight
